QPF
0.00 0.00 0.00 0.00 0.00 0.00 0.00 0.00 0.01 0.01 0.00 0.00 0.00 0.01 0.01 0.02 0.03 0.02 0.02 0.04 0.05 0.05 0.05 0.06 0.06 0.04 0.05 0.05 0.06 0.08 0.11 0.12 0.12 0.11 0.09 0.08 0.07 0.08
0.00 0.00 0.00 0.00 0.00 0.00 0.00 0.00 0.00 0.00 0.00 0.00 0.00 0.00 0.01 0.02 0.02 0.01 0.01 0.02 0.04 0.05 0.05 0.05 0.05 0.04 0.03 0.03 0.04 0.05 0.06 0.08 0.10 0.10 0.09 0.07 0.07 0.07
0.00 0.00 0.00 0.00 0.00 0.00 0.00 0.00 0.00 0.00 0.00 0.00 0.00 0.00 0.00 0.01 0.02 0.01 0.01 0.01 0.03 0.05 0.04 0.05 0.06 0.05 0.04 0.04 0.05 0.06 0.06 0.06 0.07 0.09 0.08 0.07 0.06 0.06
0.00 0.00 0.00 0.00 0.00 0.00 0.00 0.00 0.00 0.00 0.00 0.00 0.00 0.00 0.00 0.01 0.02 0.02 0.01 0.02 0.03 0.05 0.05 0.05 0.05 0.05 0.05 0.05 0.05 0.05 0.06 0.07 0.06 0.07 0.07 0.06 0.05 0.05
0.00 0.00 0.00 0.00 0.00 0.00 0.00 0.00 0.00 0.00 0.00 0.00 0.00 0.00 0.01 0.01 0.01 0.02 0.02 0.03 0.03 0.04 0.06 0.04 0.04 0.04 0.04 0.04 0.04 0.04 0.04 0.06 0.06 0.06 0.06 0.05 0.04 0.03
0.00 0.00 0.00 0.00 0.00 0.00 0.00 0.00 0.00 0.00 0.00 0.00 0.00 0.01 0.01 0.01 0.01 0.02 0.02 0.03 0.04 0.03 0.04 0.04 0.03 0.03 0.04 0.04 0.03 0.03 0.03 0.03 0.05 0.06 0.07 0.06 0.05 0.04
0.00 0.00 0.00 0.00 0.00 0.00 0.00 0.00 0.00 0.00 0.00 0.01 0.00 0.01 0.01 0.01 0.02 0.03 0.02 0.03 0.04 0.04 0.04 0.03 0.03 0.02 0.02 0.03 0.04 0.03 0.02 0.02 0.03 0.05 0.06 0.06 0.05 0.05
0.00 0.00 0.00 0.00 0.00 0.00 0.00 0.00 0.00 0.00 0.00 0.01 0.01 0.01 0.01 0.01 0.02 0.03 0.04 0.04 0.03 0.03 0.03 0.03 0.03 0.02 0.02 0.02 0.03 0.03 0.03 0.04 0.04 0.04 0.06 0.07 0.07 0.05
0.00 0.00 0.00 0.00 0.00 0.00 0.00 0.00 0.00 0.00 0.01 0.01 0.01 0.01 0.01 0.01 0.02 0.03 0.04 0.05 0.04 0.04 0.04 0.04 0.03 0.03 0.03 0.03 0.03 0.03 0.03 0.04 0.04 0.04 0.04 0.05 0.06 0.06
0.00 0.00 0.00 0.00 0.00 0.00 0.00 0.00 0.00 0.00 0.00 0.01 0.01 0.01 0.01 0.00 0.01 0.03 0.05 0.07 0.07 0.06 0.06 0.05 0.03 0.03 0.04 0.04 0.04 0.04 0.04 0.04 0.05 0.06 0.04 0.03 0.03 0.04
0.00 0.00 0.00 0.00 0.00 0.00 0.00 0.00 0.01 0.01 0.01 0.01 0.02 0.01 0.01 0.01 0.01 0.02 0.04 0.07 0.08 0.07 0.06 0.05 0.03 0.03 0.04 0.05 0.04 0.04 0.04 0.05 0.05 0.06 0.06 0.05 0.04 0.04
0.00 0.00 0.00 0.00 0.01 0.01 0.01 0.01 0.02 0.02 0.02 0.02 0.02 0.01 0.01 0.01 0.01 0.02 0.03 0.07 0.08 0.08 0.07 0.06 0.04 0.03 0.03 0.03 0.04 0.05 0.05 0.05 0.05 0.05 0.06 0.07 0.08 0.06
0.00 0.00 0.00 0.00 0.01 0.01 0.01 0.02 0.02 0.03 0.02 0.02 0.01 0.01 0.01 0.01 0.01 0.01 0.03 0.06 0.08 0.07 0.07 0.08 0.06 0.04 0.04 0.03 0.03 0.04 0.05 0.05 0.06 0.06 0.07 0.08 0.08 0.07
0.00 0.00 0.00 0.00 0.00 0.01 0.01 0.02 0.03 0.03 0.02 0.02 0.02 0.02 0.02 0.01 0.02 0.02 0.02 0.04 0.06 0.07 0.07 0.09 0.09 0.07 0.05 0.05 0.05 0.05 0.06 0.06 0.06 0.06 0.07 0.08 0.09 0.09
0.00 0.00 0.00 0.00 0.00 0.01 0.01 0.02 0.03 0.02 0.02 0.03 0.02 0.02 0.02 0.02 0.02 0.03 0.04 0.04 0.06 0.08 0.09 0.08 0.09 0.09 0.06 0.04 0.04 0.04 0.06 0.08 0.08 0.07 0.06 0.07 0.06 0.07
0.01 0.01 0.00 0.00 0.00 0.01 0.01 0.01 0.02 0.03 0.03 0.03 0.03 0.03 0.03 0.03 0.03 0.04 0.04 0.05 0.06 0.07 0.08 0.09 0.10 0.10 0.10 0.07 0.04 0.03 0.03 0.04 0.05 0.06 0.07 0.07 0.08 0.08
0.00 0.01 0.01 0.01 0.01 0.01 0.01 0.01 0.01 0.01 0.02 0.03 0.04 0.04 0.04 0.04 0.04 0.05 0.05 0.06 0.08 0.09 0.09 0.09 0.09 0.10 0.12 0.11 0.08 0.06 0.05 0.04 0.04 0.05 0.06 0.06 0.07 0.08
0.00 0.00 0.00 0.01 0.01 0.01 0.01 0.01 0.01 0.01 0.02 0.02 0.03 0.04 0.05 0.05 0.06 0.07 0.07 0.08 0.09 0.09 0.11 0.11 0.11 0.11 0.11 0.10 0.09 0.08 0.06 0.05 0.05 0.05 0.05 0.05 0.06 0.06
0.00 0.00 0.00 0.00 0.01 0.01 0.01 0.01 0.01 0.01 0.02 0.03 0.03 0.04 0.04 0.06 0.08 0.09 0.10 0.10 0.10 0.10 0.10 0.11 0.12 0.12 0.11 0.09 0.06 0.06 0.06 0.05 0.06 0.06 0.06 0.05 0.05 0.05
0.00 0.00 0.01 0.01 0.01 0.01 0.01 0.01 0.01 0.01 0.01 0.03 0.03 0.04 0.05 0.07 0.08 0.10 0.11 0.11 0.11 0.10 0.11 0.11 0.12 0.11 0.09 0.08 0.07 0.05 0.06 0.06 0.06 0.06 0.06 0.06 0.06 0.06
0.00 0.00 0.01 0.01 0.01 0.01 0.02 0.01 0.01 0.01 0.01 0.03 0.04 0.05 0.05 0.06 0.08 0.09 0.11 0.13 0.13 0.13 0.13 0.11 0.11 0.11 0.11 0.11 0.10 0.07 0.06 0.07 0.07 0.06 0.05 0.06 0.06 0.06
0.00 0.00 0.00 0.00 0.01 0.01 0.01 0.01 0.01 0.01 0.01 0.02 0.03 0.04 0.04 0.06 0.06 0.08 0.11 0.14 0.15 0.14 0.13 0.13 0.15 0.16 0.14 0.12 0.09 0.07 0.07 0.07 0.09 0.10 0.08 0.06 0.05 0.05
0.00 0.01 0.00 0.00 0.00 0.00 0.01 0.01 0.01 0.01 0.01 0.02 0.03 0.03 0.04 0.05 0.06 0.08 0.10 0.14 0.16 0.16 0.15 0.15 0.16 0.16 0.15 0.12 0.10 0.08 0.07 0.07 0.08 0.08 0.08 0.07 0.06 0.05
MSLP
1020.51 1020.55 1020.60 1020.63 1020.62 1020.55 1020.42 1020.22 1019.95 1019.62 1019.23 1018.79 1018.34 1017.88 1017.45 1017.05 1016.72 1016.45 1016.25 1016.12 1016.04 1015.99 1015.96 1015.92 1015.85 1015.76 1015.65 1015.53 1015.44 1015.39 1015.42 1015.53 1015.73 1016.01 1016.36 1016.74 1017.15 1017.54
1020.79 1020.77 1020.74 1020.70 1020.63 1020.52 1020.37 1020.17 1019.90 1019.59 1019.22 1018.81 1018.37 1017.92 1017.48 1017.07 1016.71 1016.41 1016.18 1016.02 1015.91 1015.85 1015.80 1015.75 1015.68 1015.58 1015.46 1015.33 1015.22 1015.15 1015.15 1015.23 1015.40 1015.64 1015.95 1016.29 1016.66 1017.02
1021.15 1021.06 1020.97 1020.86 1020.73 1020.57 1020.39 1020.18 1019.93 1019.63 1019.30 1018.91 1018.50 1018.06 1017.61 1017.18 1016.78 1016.44 1016.16 1015.95 1015.80 1015.69 1015.61 1015.54 1015.45 1015.35 1015.23 1015.12 1015.02 1014.95 1014.95 1015.02 1015.16 1015.38 1015.64 1015.95 1016.26 1016.57
1021.57 1021.43 1021.28 1021.11 1020.93 1020.74 1020.54 1020.32 1020.08 1019.80 1019.50 1019.14 1018.75 1018.31 1017.86 1017.40 1016.96 1016.56 1016.21 1015.93 1015.71 1015.54 1015.41 1015.29 1015.19 1015.09 1014.98 1014.88 1014.80 1014.76 1014.78 1014.86 1014.99 1015.19 1015.42 1015.67 1015.93 1016.18
1022.01 1021.84 1021.65 1021.44 1021.22 1021.00 1020.79 1020.57 1020.34 1020.09 1019.80 1019.47 1019.09 1018.66 1018.19 1017.70 1017.21 1016.74 1016.32 1015.95 1015.64 1015.39 1015.19 1015.03 1014.89 1014.77 1014.67 1014.60 1014.55 1014.54 1014.59 1014.68 1014.83 1015.01 1015.22 1015.43 1015.64 1015.83
1022.41 1022.22 1022.00 1021.77 1021.53 1021.30 1021.08 1020.86 1020.64 1020.41 1020.14 1019.83 1019.45 1019.02 1018.54 1018.01 1017.48 1016.94 1016.44 1015.98 1015.59 1015.25 1014.97 1014.74 1014.56 1014.41 1014.31 1014.24 1014.22 1014.24 1014.31 1014.43 1014.59 1014.78 1014.97 1015.16 1015.32 1015.47
1022.70 1022.49 1022.26 1022.02 1021.78 1021.54 1021.32 1021.10 1020.89 1020.66 1020.40 1020.09 1019.72 1019.29 1018.79 1018.24 1017.67 1017.08 1016.51 1015.98 1015.50 1015.08 1014.72 1014.42 1014.19 1014.00 1013.87 1013.80 1013.78 1013.82 1013.92 1014.06 1014.23 1014.43 1014.62 1014.79 1014.95 1015.07
1022.82 1022.61 1022.37 1022.13 1021.88 1021.64 1021.41 1021.20 1020.98 1020.75 1020.48 1020.17 1019.80 1019.36 1018.86 1018.30 1017.71 1017.09 1016.49 1015.90 1015.36 1014.87 1014.45 1014.08 1013.78 1013.54 1013.37 1013.27 1013.24 1013.28 1013.38 1013.54 1013.72 1013.93 1014.13 1014.32 1014.48 1014.60
1022.76 1022.53 1022.29 1022.05 1021.80 1021.56 1021.32 1021.09 1020.86 1020.61 1020.33 1020.01 1019.63 1019.19 1018.70 1018.15 1017.56 1016.94 1016.33 1015.73 1015.15 1014.62 1014.14 1013.71 1013.35 1013.05 1012.83 1012.68 1012.62 1012.63 1012.72 1012.88 1013.07 1013.30 1013.53 1013.74 1013.92 1014.08
1022.51 1022.28 1022.04 1021.79 1021.53 1021.28 1021.03 1020.78 1020.52 1020.25 1019.94 1019.60 1019.22 1018.78 1018.30 1017.77 1017.21 1016.63 1016.04 1015.45 1014.88 1014.32 1013.81 1013.33 1012.91 1012.55 1012.26 1012.05 1011.94 1011.91 1011.98 1012.12 1012.33 1012.57 1012.83 1013.09 1013.32 1013.53
1022.14 1021.90 1021.66 1021.41 1021.15 1020.88 1020.61 1020.33 1020.03 1019.72 1019.38 1019.02 1018.62 1018.19 1017.73 1017.24 1016.72 1016.19 1015.64 1015.09 1014.54 1013.99 1013.46 1012.95 1012.47 1012.05 1011.69 1011.41 1011.24 1011.16 1011.19 1011.32 1011.53 1011.80 1012.10 1012.42 1012.72 1013.00
1021.71 1021.47 1021.22 1020.97 1020.71 1020.43 1020.14 1019.82 1019.48 1019.12 1018.74 1018.35 1017.93 1017.50 1017.05 1016.60 1016.13 1015.66 1015.17 1014.67 1014.15 1013.62 1013.08 1012.55 1012.03 1011.55 1011.12 1010.78 1010.54 1010.42 1010.41 1010.52 1010.74 1011.04 1011.39 1011.77 1012.15 1012.50
1021.26 1021.03 1020.79 1020.54 1020.28 1019.99 1019.67 1019.31 1018.93 1018.52 1018.09 1017.66 1017.21 1016.77 1016.34 1015.91 1015.48 1015.06 1014.62 1014.17 1013.69 1013.19 1012.65 1012.11 1011.55 1011.03 1010.55 1010.14 1009.85 1009.68 1009.64 1009.75 1009.97 1010.31 1010.71 1011.16 1011.62 1012.06
1020.84 1020.61 1020.39 1020.15 1019.88 1019.58 1019.23 1018.84 1018.41 1017.95 1017.47 1016.98 1016.50 1016.04 1015.60 1015.18 1014.78 1014.39 1013.99 1013.57 1013.13 1012.64 1012.12 1011.56 1010.99 1010.43 1009.91 1009.47 1009.13 1008.93 1008.88 1008.98 1009.23 1009.60 1010.07 1010.59 1011.13 1011.66
1020.42 1020.21 1020.00 1019.77 1019.50 1019.18 1018.81 1018.38 1017.90 1017.38 1016.85 1016.31 1015.78 1015.28 1014.82 1014.39 1013.99 1013.60 1013.22 1012.83 1012.40 1011.93 1011.42 1010.86 1010.28 1009.71 1009.17 1008.71 1008.35 1008.14 1008.09 1008.21 1008.49 1008.90 1009.43 1010.03 1010.65 1011.26
1019.98 1019.79 1019.58 1019.35 1019.07 1018.73 1018.33 1017.86 1017.34 1016.77 1016.18 1015.59 1015.01 1014.46 1013.95 1013.49 1013.07 1012.67 1012.29 1011.89 1011.47 1011.01 1010.51 1009.96 1009.39 1008.82 1008.29 1007.83 1007.48 1007.29 1007.25 1007.40 1007.72 1008.18 1008.77 1009.44 1010.14 1010.84
1019.47 1019.27 1019.05 1018.81 1018.51 1018.15 1017.71 1017.21 1016.65 1016.04 1015.40 1014.75 1014.12 1013.51 1012.96 1012.45 1011.99 1011.56 1011.15 1010.75 1010.32 1009.87 1009.37 1008.85 1008.30 1007.76 1007.26 1006.83 1006.52 1006.35 1006.36 1006.54 1006.91 1007.43 1008.09 1008.83 1009.61 1010.38
1018.83 1018.61 1018.37 1018.10 1017.77 1017.38 1016.92 1016.38 1015.79 1015.14 1014.46 1013.76 1013.08 1012.43 1011.82 1011.26 1010.75 1010.28 1009.83 1009.41 1008.97 1008.52 1008.05 1007.55 1007.04 1006.55 1006.10 1005.73 1005.47 1005.36 1005.42 1005.67 1006.09 1006.67 1007.39 1008.19 1009.05 1009.89
1018.05 1017.79 1017.51 1017.20 1016.84 1016.42 1015.93 1015.38 1014.76 1014.08 1013.38 1012.65 1011.93 1011.24 1010.58 1009.97 1009.40 1008.88 1008.40 1007.95 1007.50 1007.06 1006.61 1006.15 1005.70 1005.27 1004.89 1004.59 1004.41 1004.37 1004.50 1004.81 1005.29 1005.93 1006.71 1007.58 1008.50 1009.42
1017.13 1016.82 1016.50 1016.15 1015.76 1015.31 1014.81 1014.24 1013.61 1012.93 1012.21 1011.47 1010.73 1010.00 1009.30 1008.65 1008.04 1007.47 1006.95 1006.47 1006.02 1005.58 1005.15 1004.74 1004.34 1003.99 1003.69 1003.48 1003.39 1003.43 1003.64 1004.02 1004.57 1005.27 1006.11 1007.04 1008.03 1009.01
1016.12 1015.76 1015.39 1015.01 1014.59 1014.12 1013.61 1013.05 1012.42 1011.75 1011.04 1010.30 1009.55 1008.80 1008.07 1007.38 1006.73 1006.13 1005.57 1005.07 1004.60 1004.17 1003.76 1003.39 1003.06 1002.78 1002.57 1002.45 1002.45 1002.59 1002.88 1003.34 1003.96 1004.72 1005.62 1006.61 1007.65 1008.70
1015.06 1014.66 1014.26 1013.84 1013.41 1012.94 1012.43 1011.87 1011.27 1010.61 1009.91 1009.18 1008.43 1007.68 1006.93 1006.21 1005.53 1004.90 1004.31 1003.78 1003.30 1002.87 1002.49 1002.16 1001.89 1001.68 1001.55 1001.52 1001.62 1001.85 1002.23 1002.77 1003.46 1004.30 1005.25 1006.30 1007.39 1008.49
1014.01 1013.57 1013.15 1012.72 1012.27 1011.80 1011.30 1010.75 1010.16 1009.52 1008.84 1008.12 1007.37 1006.61 1005.86 1005.13 1004.42 1003.76 1003.16 1002.61 1002.12 1001.69 1001.33 1001.04 1000.81 1000.67 1000.62 1000.67 1000.86 1001.18 1001.65 1002.28 1003.05 1003.96 1004.97 1006.07 1007.22 1008.36
Thickness
5681 5680 5679 5678 5678 5677 5676 5675 5673 5672 5675 5681 5685 5690 5692 5694 5696 5698 5700 5703 5705 5707 5709 5711 5713 5715 5716 5718 5720 5722 5724 5724 5725 5726 5726 5726 5727 5727
5680 5679 5679 5678 5677 5677 5676 5674 5673 5672 5672 5677 5681 5685 5688 5690 5692 5694 5696 5698 5701 5703 5705 5707 5708 5710 5711 5713 5715 5717 5719 5720 5721 5722 5722 5723 5723 5724
5678 5677 5677 5676 5675 5675 5674 5673 5672 5671 5670 5674 5677 5680 5683 5685 5687 5689 5691 5693 5696 5698 5700 5702 5703 5705 5706 5708 5710 5712 5714 5715 5716 5717 5718 5718 5719 5720
5675 5675 5674 5674 5673 5672 5671 5670 5670 5669 5668 5669 5673 5675 5677 5679 5681 5684 5686 5688 5690 5693 5695 5697 5698 5700 5702 5703 5705 5707 5708 5710 5711 5712 5713 5714 5714 5715
5672 5671 5670 5670 5669 5669 5668 5667 5666 5666 5665 5664 5666 5669 5671 5673 5674 5677 5679 5682 5684 5687 5689 5691 5693 5694 5696 5698 5699 5701 5703 5704 5705 5706 5707 5708 5709 5710
5668 5668 5667 5666 5665 5665 5664 5663 5662 5661 5659 5659 5660 5661 5663 5665 5665 5667 5669 5673 5676 5680 5683 5685 5687 5689 5691 5693 5694 5696 5697 5699 5699 5701 5702 5703 5704 5705
5663 5663 5663 5663 5662 5661 5660 5658 5657 5654 5653 5651 5652 5653 5654 5654 5656 5657 5659 5663 5668 5672 5674 5678 5680 5682 5685 5686 5688 5690 5692 5693 5694 5695 5697 5698 5699 5700
5656 5656 5657 5657 5657 5656 5655 5653 5651 5648 5645 5644 5644 5644 5646 5647 5647 5648 5649 5652 5657 5663 5664 5669 5672 5675 5678 5680 5683 5684 5686 5687 5688 5689 5691 5692 5693 5694
5650 5649 5650 5650 5649 5648 5647 5646 5643 5641 5639 5637 5636 5637 5638 5640 5639 5640 5641 5644 5648 5653 5654 5659 5663 5666 5671 5674 5676 5678 5679 5680 5682 5683 5684 5685 5686 5687
5642 5641 5640 5640 5640 5639 5638 5637 5634 5633 5631 5629 5629 5629 5631 5631 5631 5632 5633 5635 5640 5643 5645 5649 5654 5658 5662 5666 5669 5670 5672 5673 5674 5676 5677 5678 5679 5680
5634 5633 5631 5630 5631 5630 5627 5625 5624 5624 5623 5621 5620 5620 5620 5621 5620 5620 5621 5623 5628 5634 5635 5638 5644 5647 5652 5656 5660 5662 5664 5665 5666 5668 5669 5671 5672 5672
5624 5623 5622 5620 5619 5618 5614 5611 5610 5611 5611 5611 5610 5609 5608 5608 5609 5609 5610 5611 5615 5621 5627 5627 5633 5635 5640 5646 5649 5652 5654 5656 5658 5660 5661 5663 5664 5663
5613 5612 5611 5609 5608 5605 5603 5599 5598 5598 5597 5596 5595 5595 5594 5594 5595 5596 5597 5599 5603 5609 5615 5615 5620 5623 5627 5633 5637 5641 5644 5647 5649 5651 5652 5654 5655 5656
5602 5600 5598 5597 5595 5593 5590 5588 5586 5584 5581 5579 5578 5579 5579 5580 5581 5583 5585 5587 5591 5597 5602 5603 5607 5611 5615 5620 5625 5630 5633 5636 5639 5641 5643 5645 5646 5647
5591 5589 5587 5585 5582 5579 5576 5573 5571 5567 5564 5562 5562 5563 5564 5565 5566 5568 5572 5574 5579 5584 5588 5591 5596 5600 5604 5609 5615 5619 5622 5626 5629 5632 5633 5635 5637 5638
5579 5577 5575 5571 5567 5564 5561 5558 5554 5550 5548 5546 5546 5547 5547 5549 5550 5553 5556 5560 5565 5572 5576 5579 5584 5588 5593 5599 5604 5609 5613 5617 5620 5621 5623 5625 5626 5629
5566 5563 5559 5556 5553 5550 5546 5543 5539 5536 5533 5531 5530 5530 5532 5533 5536 5539 5542 5546 5550 5557 5563 5566 5571 5576 5582 5588 5592 5599 5603 5606 5610 5611 5612 5615 5617 5620
5552 5547 5544 5540 5537 5534 5531 5529 5526 5522 5519 5517 5516 5516 5517 5519 5523 5526 5528 5532 5537 5543 5548 5552 5556 5561 5568 5576 5583 5589 5593 5596 5599 5601 5603 5605 5607 5610
5536 5532 5528 5525 5522 5519 5515 5512 5511 5509 5506 5503 5503 5503 5504 5506 5509 5513 5516 5519 5525 5530 5535 5539 5543 5549 5557 5568 5575 5578 5583 5585 5587 5589 5592 5596 5600 5602
5521 5517 5514 5511 5508 5504 5501 5498 5496 5494 5492 5491 5490 5490 5490 5492 5496 5499 5503 5507 5512 5517 5523 5528 5533 5539 5546 5556 5563 5566 5571 5575 5578 5580 5581 5582 5585 5588
5510 5505 5501 5497 5493 5490 5487 5485 5482 5480 5479 5478 5477 5477 5477 5479 5482 5486 5490 5495 5499 5505 5512 5519 5525 5528 5533 5538 5545 5552 5558 5563 5569 5572 5572 5572 5573 5575
5497 5493 5489 5484 5480 5476 5474 5471 5469 5467 5465 5464 5465 5465 5465 5466 5470 5474 5478 5483 5489 5495 5501 5508 5512 5517 5521 5528 5538 5543 5546 5550 5554 5558 5563 5569 5571 5572
5485 5481 5477 5472 5467 5463 5460 5458 5456 5455 5453 5452 5452 5453 5454 5456 5458 5462 5467 5472 5478 5484 5489 5495 5501 5507 5513 5519 5526 5531 5535 5539 5542 5544 5548 5555 5561 5567